This is the latest recevied weather packets stored in our database for station/object WX7FGZ-5. If no packets are shown the sender has not sent any weather packets the latest 10 day(s).
| Time | Temp. | Humidity | Pressure | Rain* | Wind** | Luminosity | Snow |
|---|---|---|---|---|---|---|---|
| 1778030373 | 4.44° C | 81% | 1017.4 hPa | 0.25 mm | - | 69 W/m² | - |
| 1778030224 | 4.44° C | 81% | 1017.4 hPa | 0.25 mm | - | 69 W/m² | - |
| 1778029637 | 4.44° C | 80% | 1017 hPa | 0.25 mm | - | 77 W/m² | - |
| 1778029324 | 3.89° C | 81% | 1017 hPa | 0.25 mm | - | 69 W/m² | - |
| 1778029025 | 3.89° C | 81% | 1017 hPa | 0.25 mm | - | 62 W/m² | - |
| 1778028855 | 3.89° C | 81% | 1017.1 hPa | 0.25 mm | - | 54 W/m² | - |
| 1778028724 | 3.89° C | 81% | 1017.1 hPa | 0.25 mm | - | 54 W/m² | - |
| 1778028580 | 3.89° C | 82% | 1017.2 hPa | 0.25 mm | - | 47 W/m² | - |
| 1778028424 | 3.89° C | 82% | 1017.2 hPa | 0.25 mm | - | 47 W/m² | - |
| 1778027824 | 4.44° C | 80% | 1017.1 hPa | 0.25 mm | - | 58 W/m² | - |
| 1778027495 | 4.44° C | 80% | 1016.5 hPa | 0.25 mm | - | 63 W/m² | - |
| 1778027344 | 4.44° C | 80% | 1016.5 hPa | 0.25 mm | - | 63 W/m² | - |
| 1778027044 | 4.44° C | 83% | 1016.7 hPa | 0 mm | - | 63 W/m² | - |
| 1778026444 | 4.44° C | 81% | 1017 hPa | 0 mm | - | 72 W/m² | - |
| 1778025959 | 4.44° C | 81% | 1017.1 hPa | 0 mm | - | 53 W/m² | - |
| 1778025844 | 4.44° C | 81% | 1017.1 hPa | 0 mm | - | 53 W/m² | - |
| 1778025544 | 4.44° C | 81% | 1017 hPa | 0 mm | - | 58 W/m² | - |
| 1778025413 | 4.44° C | 80% | 1016.8 hPa | 0 mm | - | 53 W/m² | - |
| 1778025243 | 4.44° C | 80% | 1016.8 hPa | 0 mm | - | 53 W/m² | - |
| 1778024944 | 4.44° C | 80% | 1016.7 hPa | 0 mm | - | 37 W/m² | - |
| 1778024544 | 4.44° C | 81% | 1016.7 hPa | 0 mm | - | 76 W/m² | - |
| 1778024245 | 4.44° C | 81% | 1016.8 hPa | 0 mm | - | 95 W/m² | - |
| 1778024087 | 4.44° C | 82% | 1016.3 hPa | 0 mm | - | 113 W/m² | - |
| 1778023944 | 4.44° C | 82% | 1016.3 hPa | 0 mm | - | 113 W/m² | - |
| 1778023644 | 4.44° C | 81% | 1016.2 hPa | 0 mm | - | 104 W/m² | - |
* Rain latest hour (hover to see other rain measurements)
** Current wind speed in m/s (hover to see current wind gust speed)